GFSFLT2_700_spd_042.txt.gz
Wind_Speed
36 37 38 30 31 29 18 19 24 25 30 28 28 29 33 36 38 37 36 38 39 38 39 41 42 43 43
19 30 29 35 27 27 24 25 29 29 28 27 31 32 32 33 33 35 37 39 40 42 43 45 46 47 47
18 11 18 20 18 21 24 25 26 25 27 27 29 29 31 33 35 38 40 40 41 41 41 40 42 42 42
17 20 20 18 17 19 23 25 23 26 26 28 30 32 33 33 31 28 27 27 28 29 30 31 31 30 30
21 19 20 20 20 21 22 24 27 29 30 31 29 26 23 21 22 24 25 26 26 27 28 27 26 25 24
21 19 18 20 21 24 27 29 31 31 25 21 19 20 21 21 23 24 25 26 27 28 29 28 28 28 28
20 20 21 23 26 28 29 28 23 20 15 19 21 21 21 23 23 24 25 27 28 30 30 31 31 30 29
25 27 27 27 26 24 19 16 17 19 18 18 22 20 21 23 23 23 25 27 29 31 31 31 32 32 31
27 27 25 22 18 16 16 18 19 21 20 19 20 20 22 23 22 22 26 29 30 31 32 33 34 35 33
24 23 19 16 16 18 18 18 18 19 22 22 21 22 20 22 22 23 27 29 29 30 32 35 35 37 36
22 20 18 18 18 18 18 18 19 21 25 25 22 23 25 20 20 23 28 28 29 29 33 34 35 37 37
19 19 19 20 21 21 21 22 22 23 25 28 27 25 27 26 20 22 27 28 29 29 32 32 32 34 36
20 20 21 22 22 23 24 24 24 25 27 28 29 29 29 28 28 22 26 26 27 30 32 31 31 33 34
21 22 23 23 24 25 25 26 26 27 29 31 31 32 32 31 32 28 26 31 25 29 34 32 32 32 34
22 22 23 23 25 26 27 28 29 28 27 30 33 34 35 34 34 31 31 30 31 33 34 35 33 33 33
21 22 23 24 25 27 29 30 30 30 30 30 32 34 35 35 35 34 33 34 32 34 36 39 34 31 32
21 23 23 24 26 27 29 30 30 31 30 31 32 34 36 36 33 32 34 32 36 35 36 38 37 33 35

GFSFLT2_700_spd_045.txt.gz
Wind_Speed
32 34 34 33 26 29 23 25 27 26 29 27 26 28 29 27 27 26 29 31 33 33 33 33 34 35 37
33 31 28 18 17 19 26 25 23 25 28 29 31 30 28 28 31 31 31 31 31 33 34 36 38 39 41
25 22 20 23 21 17 15 17 22 23 27 29 30 28 30 29 28 30 30 31 35 37 39 38 34 32 32
23 24 29 23 22 20 19 21 22 23 26 27 28 28 29 30 31 33 33 31 26 25 25 25 25 27 26
23 25 24 23 24 22 22 23 23 26 28 29 31 32 33 31 26 23 22 22 23 24 25 26 26 26 26
24 25 24 22 22 23 24 25 27 30 31 31 33 26 22 19 21 21 22 23 24 25 25 26 26 26 26
25 27 28 27 27 28 30 32 33 35 30 21 20 19 20 22 23 23 24 25 26 26 27 28 28 28 28
27 29 30 30 30 31 32 31 28 25 19 17 21 22 24 26 25 24 26 27 28 28 29 29 29 29 29
25 26 27 27 27 27 26 22 19 21 20 20 23 23 26 28 28 28 29 29 30 30 31 31 31 31 31
25 25 25 24 24 22 22 21 21 23 24 24 24 27 27 27 29 28 28 30 31 31 32 32 32 33 32
24 23 22 22 21 21 22 23 24 25 28 28 25 28 30 30 28 29 29 31 32 32 34 34 34 35 34
24 23 22 21 21 21 22 24 25 26 28 31 29 30 32 30 28 25 30 33 34 34 34 36 38 38 37
23 23 23 22 22 21 23 24 24 26 28 31 32 32 33 33 33 27 27 28 35 37 37 39 39 38 37
24 24 23 22 22 23 24 26 25 27 30 32 33 34 34 34 35 32 27 29 28 32 37 40 39 37 37
23 23 22 22 23 24 25 26 27 26 27 32 35 35 35 35 35 33 32 31 31 31 34 38 37 36 35
25 25 24 24 24 26 28 30 29 29 29 31 34 36 35 34 35 35 33 34 33 34 36 39 37 32 36
27 27 28 27 27 27 29 31 31 31 30 31 33 36 36 34 31 32 33 32 34 35 36 38 39 33 37

GFSFLT2_700_spd_048.txt.gz
Wind_Speed
30 34 32 25 26 27 26 19 20 25 24 27 27 26 25 23 25 26 27 26 24 24 25 27 30 33 34
31 27 23 21 22 27 28 22 18 21 23 25 23 23 25 24 26 28 28 28 26 26 28 28 29 30 31
24 22 22 21 24 28 21 21 17 16 17 19 21 21 23 25 25 26 28 28 27 28 30 31 33 34 33
24 24 23 23 23 24 21 21 22 21 19 20 20 21 23 26 26 27 30 31 32 34 32 28 24 23 22
23 23 23 24 24 23 23 21 22 23 24 24 25 25 27 29 30 32 34 31 25 22 22 22 23 23 24
25 25 26 26 26 27 27 28 29 28 29 29 31 31 32 31 27 22 20 21 22 23 23 24 24 24 24
25 26 26 27 27 28 28 29 29 30 29 29 31 28 23 21 20 21 22 23 24 25 26 27 26 26 25
24 25 25 26 26 26 26 27 26 27 25 22 23 21 21 22 22 22 24 25 27 28 29 29 28 27 24
25 25 26 26 24 25 25 24 23 24 21 19 22 23 24 25 25 26 27 29 30 31 31 30 29 28 24
25 25 25 25 24 23 23 23 22 24 24 22 23 27 26 26 27 29 30 31 32 33 33 32 32 32 29
25 25 25 24 23 22 22 22 22 24 26 27 25 28 29 29 26 30 33 32 32 33 34 35 35 35 34
23 24 24 25 24 24 22 22 22 24 28 29 27 29 30 30 28 28 29 31 33 32 34 36 37 38 39
23 23 23 24 24 23 24 23 22 24 26 28 29 29 29 29 30 26 30 28 28 32 36 38 38 39 39
24 24 24 24 25 24 24 25 22 24 28 29 30 31 30 30 31 28 28 30 27 29 33 36 38 40 40
25 25 26 25 26 27 27 26 25 24 25 30 35 35 34 31 29 29 30 29 29 29 31 33 34 36 39
25 26 26 25 25 27 29 30 29 27 28 30 33 36 37 32 32 31 30 32 31 31 33 36 34 32 35
26 27 28 27 27 27 29 30 30 31 29 30 32 35 37 33 26 28 28 29 30 31 33 36 37 31 34

GFSFLT2_700_spd_051.txt.gz
Wind_Speed
22 24 24 21 21 20 19 24 25 22 18 21 25 29 29 25 29 26 24 23 22 22 23 23 22 24 26
24 25 22 23 21 20 21 21 20 18 15 16 19 22 22 23 24 24 23 22 21 21 22 24 26 26 28
23 21 21 22 21 21 21 19 18 16 15 16 15 16 18 20 21 23 22 20 22 23 24 25 26 26 27
22 22 22 22 21 21 21 21 21 20 19 17 16 16 19 20 20 22 23 23 24 26 27 29 30 30 28
21 22 22 22 22 22 22 23 23 23 23 23 23 23 23 23 24 26 28 29 30 29 27 24 21 20 20
22 23 23 22 23 23 23 23 24 23 25 26 25 27 27 27 27 27 26 22 20 20 19 19 20 21 22
22 22 22 22 23 24 24 24 24 23 22 24 25 25 24 22 20 18 18 19 19 19 20 22 23 24 25
22 23 24 24 24 24 24 24 24 24 22 21 22 22 20 18 18 19 19 20 21 22 23 25 25 26 27
22 23 24 23 23 24 24 24 24 24 22 20 21 22 22 21 20 21 22 23 24 25 26 27 28 29 28
22 22 23 24 23 23 24 24 24 24 24 21 21 23 22 23 22 25 26 27 28 29 29 29 30 30 29
23 23 23 24 24 24 24 24 25 26 25 25 23 25 26 24 22 28 29 30 31 30 31 32 33 34 32
22 22 23 23 24 24 24 24 24 25 27 27 25 27 27 26 24 25 28 30 32 32 32 33 34 35 36
22 23 24 25 25 25 25 23 24 26 27 28 29 28 27 26 25 24 26 29 30 31 33 34 34 35 35
23 24 25 25 26 26 26 26 25 27 29 30 31 30 28 28 29 24 27 28 27 30 32 31 31 32 35
24 24 25 26 26 28 28 28 26 24 26 31 36 36 33 31 30 28 28 27 30 30 32 30 28 29 33
25 25 26 26 26 28 30 30 29 28 26 28 32 34 35 31 32 29 27 27 28 28 29 31 27 28 32
25 26 26 27 27 28 29 30 29 29 27 29 30 33 35 34 29 26 26 26 26 24 27 29 29 25 29

GFSFLT2_700_spd_054.txt.gz
Wind_Speed
19 19 20 20 19 20 20 21 23 23 24 20 16 15 22 29 33 37 36 32 26 26 25 25 26 25 23
21 19 18 19 20 20 20 21 22 20 19 18 17 15 16 20 23 26 26 24 23 22 23 23 22 22 23
17 19 19 20 21 21 21 21 22 22 22 20 18 18 18 17 18 20 21 21 22 23 23 24 23 24 25
16 18 19 21 21 21 22 22 22 22 21 21 21 20 19 19 20 21 21 21 22 24 24 24 25 26 26
18 20 21 21 22 22 22 22 22 23 24 24 24 24 23 23 23 24 25 26 27 28 27 28 29 29 28
20 21 21 22 22 23 23 23 23 23 25 25 24 25 25 25 25 25 26 26 26 25 23 20 18 19 20
21 21 22 23 23 24 24 23 24 23 24 25 25 24 25 24 24 23 21 20 19 19 20 20 21 21 22
21 21 22 23 24 23 24 24 24 24 24 24 25 25 23 23 22 22 22 22 22 22 22 23 24 25 25
21 22 22 22 23 23 24 24 25 25 24 24 24 25 24 23 23 24 24 25 25 25 26 27 28 29 27
21 21 21 21 22 23 24 25 25 26 26 24 25 25 24 25 24 26 27 28 29 30 30 30 30 30 29
21 20 21 21 22 23 24 25 26 27 26 26 25 26 25 24 24 28 29 30 31 32 33 33 33 33 31
21 21 21 22 23 24 25 25 27 27 28 27 26 27 27 24 23 25 28 31 33 33 34 33 34 34 33
21 21 22 23 24 25 25 25 27 28 29 30 30 29 29 28 25 24 27 29 31 33 35 35 34 34 34
22 22 23 24 24 25 26 26 26 29 31 32 32 31 30 30 28 25 28 29 30 33 36 35 33 32 31
23 23 24 24 25 26 27 27 27 27 30 32 34 35 33 31 29 27 26 26 29 31 33 33 31 30 31
24 24 24 24 25 26 28 29 29 29 30 31 33 34 34 31 31 29 27 27 29 30 30 31 26 26 28
23 23 23 24 25 27 28 30 30 30 30 31 33 35 34 32 31 28 25 27 30 29 29 29 28 23 28

GFSFLT2_700_spd_057.txt.gz
Wind_Speed
19 18 18 18 17 17 19 20 20 19 20 19 19 18 18 16 17 23 27 32 36 38 38 40 38 32 25
17 18 17 17 17 17 18 20 21 21 21 21 20 19 18 17 16 19 23 25 29 29 26 25 24 24 23
16 14 16 17 18 18 20 21 21 22 22 21 21 21 20 19 18 17 19 21 21 21 22 24 24 23 23
13 15 18 20 20 21 21 22 22 23 23 23 23 23 23 22 20 22 23 22 22 23 23 24 24 24 24
17 19 19 20 21 22 23 23 23 24 25 25 25 24 24 24 23 23 24 25 26 27 27 28 29 29 28
20 21 21 21 22 23 23 24 25 23 25 25 25 25 24 24 24 25 25 25 25 26 28 29 28 28 28
22 22 22 22 22 22 23 23 23 23 23 24 25 25 26 26 26 25 24 23 23 22 22 22 22 22 22
23 23 23 22 22 22 22 21 21 22 23 23 25 25 25 25 27 27 26 25 24 23 23 23 24 25 25
24 23 22 22 22 21 21 21 22 22 23 24 24 25 24 24 24 26 26 26 27 27 26 27 27 27 27
23 23 22 22 22 21 21 22 23 23 24 24 25 25 25 25 25 26 26 27 28 28 29 30 30 30 29
22 22 21 21 21 21 22 23 24 25 24 25 25 26 26 25 25 28 28 27 28 29 30 32 33 34 32
22 21 21 21 22 22 23 24 25 26 27 27 27 28 28 27 26 26 27 29 32 33 33 33 32 32 32
22 22 21 22 22 23 24 24 25 26 27 28 29 29 29 29 28 25 27 27 30 33 35 35 35 34 31
24 23 23 23 23 23 24 24 24 26 27 29 30 31 30 30 29 25 27 28 27 31 33 33 33 33 32
25 25 24 24 24 24 24 25 25 27 28 29 29 32 33 32 30 28 29 27 27 29 32 32 30 30 30
26 25 25 24 24 24 25 26 26 28 29 31 33 34 33 29 30 29 29 28 28 31 32 31 29 26 29
25 25 25 25 25 26 27 28 28 29 30 32 33 35 36 33 29 29 27 27 28 31 33 33 32 24 27

GFSFLT2_700_spd_063.txt.gz
Wind_Speed
22 22 19 19 17 18 18 17 16 15 15 14 14 14 14 14 14 14 13 13 12 12 17 18 19 24 37
21 20 16 17 17 17 15 15 16 17 16 16 16 15 15 15 15 16 15 16 15 16 18 16 29 32 39
14 14 13 14 14 15 16 17 17 17 17 17 17 17 16 16 16 17 17 17 17 17 19 20 21 21 22
9 11 12 14 16 16 16 17 17 18 17 17 17 18 17 17 17 17 16 17 18 19 20 21 23 24 24
11 12 14 15 16 17 17 17 18 19 18 16 18 17 16 16 16 16 16 17 18 19 20 21 22 23 24
14 15 16 16 16 16 18 17 17 20 18 16 16 17 16 16 16 16 17 18 18 18 19 20 22 23 25
16 16 16 16 16 16 17 17 18 17 17 16 16 16 16 17 16 16 17 18 18 18 19 20 21 22 23
16 15 15 17 17 17 17 17 17 16 16 16 16 16 16 17 17 18 18 19 19 19 20 21 21 22 23
15 15 17 17 17 18 18 17 16 17 16 17 17 17 18 18 18 18 19 20 20 20 21 22 23 24 25
16 17 18 17 17 17 17 18 17 17 18 18 18 19 18 19 19 19 21 22 23 23 23 25 26 27 27
16 17 16 16 17 17 18 18 19 18 20 20 21 19 19 18 20 20 22 23 24 25 26 27 28 29 29
16 16 17 18 18 18 19 20 21 21 21 21 21 20 19 18 19 21 24 26 26 27 29 29 29 29 29
17 18 18 19 19 21 21 21 22 22 22 22 22 21 20 19 17 22 25 27 29 30 31 29 29 29 29
19 19 20 21 21 22 23 22 23 23 23 22 22 22 22 23 21 22 26 26 28 31 31 29 29 29 29
22 22 22 22 23 22 22 21 21 24 25 24 24 24 25 25 24 26 26 27 30 31 32 30 27 27 29
24 24 25 25 24 23 22 22 22 24 24 25 26 27 27 25 29 27 28 29 31 32 33 33 27 25 29
26 26 27 27 25 24 24 23 23 23 24 25 28 30 30 29 26 29 29 29 31 30 31 33 32 26 28

GFSFLT2_700_spd_066.txt.gz
Wind_Speed
25 24 23 21 20 18 15 16 16 13 12 14 14 14 14 14 13 13 14 14 14 14 19 22 28 37 38
23 22 21 19 16 15 15 14 12 12 13 15 14 15 16 14 14 15 15 16 15 15 14 16 17 18 18
22 19 15 14 12 11 13 13 13 14 15 15 14 15 17 16 16 16 17 16 16 15 15 15 15 17 21
15 13 12 12 13 14 15 15 16 16 16 16 15 15 17 17 16 15 15 16 16 16 17 17 17 19 20
13 12 12 14 15 17 16 17 18 17 17 17 16 15 16 16 15 15 15 15 15 16 17 18 19 20 22
14 14 15 16 17 18 17 19 19 18 17 16 16 15 15 14 14 15 15 15 15 16 16 17 18 20 20
15 15 16 16 18 18 18 19 19 19 17 16 15 16 15 15 15 16 16 16 16 16 16 17 18 19 20
15 15 15 15 16 17 18 19 19 18 17 17 16 16 17 16 17 17 17 17 17 17 17 17 18 19 20
14 13 14 15 16 17 18 18 18 18 17 18 17 17 18 18 18 19 19 19 18 18 18 19 20 20 21
12 13 14 15 16 16 17 17 17 18 18 19 19 19 20 20 19 20 20 20 20 21 21 21 22 22 23
13 14 14 15 16 16 17 18 18 19 19 20 20 20 21 21 20 21 21 22 23 23 23 23 23 25 26
14 15 15 16 17 18 18 19 19 20 21 21 21 20 21 21 21 22 23 24 24 26 27 26 27 28 28
17 17 19 19 19 19 19 20 21 22 23 23 22 21 21 21 21 23 25 27 27 29 28 27 29 30 29
20 22 22 21 21 22 22 22 23 23 23 23 22 22 22 22 21 23 26 26 29 32 31 29 30 32 31
21 25 24 24 24 24 24 24 24 25 24 24 24 24 23 23 22 25 26 27 31 31 33 30 29 32 33
24 26 26 26 26 27 27 25 24 25 26 26 25 25 25 24 25 25 27 29 31 33 33 32 28 30 33
31 28 28 28 29 30 29 27 25 25 26 27 27 28 28 27 25 28 28 31 32 32 33 34 32 28 32

GFSFLT2_700_spd_069.txt.gz
Wind_Speed
32 29 29 27 24 22 20 18 17 15 15 13 13 14 15 14 14 13 13 12 12 13 16 21 26 32 33
29 27 27 25 22 21 18 16 16 14 13 13 14 15 15 15 16 14 14 15 15 15 16 17 23 29 31
27 25 24 23 21 17 16 14 13 14 13 15 16 16 17 16 18 17 17 17 17 18 16 17 18 21 23
24 22 19 16 15 14 14 14 15 15 15 16 17 18 18 18 18 18 18 18 18 17 17 17 17 18 19
20 17 14 14 14 13 14 15 16 15 17 18 18 18 19 18 17 17 17 17 17 17 17 17 18 19 20
18 17 15 15 15 15 15 16 15 16 17 18 18 19 18 18 16 16 16 16 17 17 16 17 18 19 19
16 16 15 16 16 16 16 15 15 16 17 17 18 18 18 17 17 17 16 16 16 16 16 17 18 19 19
15 16 17 16 16 15 15 16 16 17 17 17 17 18 18 18 18 17 17 17 17 18 18 18 18 18 18
15 16 16 16 15 15 16 17 17 17 17 17 18 18 18 19 19 18 18 18 18 19 19 18 18 19 20
14 15 15 15 15 15 15 16 16 16 16 18 18 19 19 19 20 20 19 20 20 20 20 20 21 21 21
13 14 15 15 14 14 14 16 17 18 18 19 19 20 21 20 21 21 21 22 22 21 21 21 22 22 23
15 15 14 13 12 14 18 18 17 18 19 20 21 22 22 23 22 23 24 24 24 23 23 23 24 25 26
17 16 14 14 20 18 21 19 18 18 19 21 22 23 24 24 24 26 27 26 25 26 25 25 27 28 28
18 18 23 28 21 22 23 22 21 20 21 22 23 24 24 25 24 25 28 27 29 30 28 28 29 30 30
21 28 35 26 22 24 24 24 24 24 23 23 24 25 25 26 24 26 28 28 32 32 33 29 29 32 33
34 37 34 29 24 25 26 26 27 28 27 26 25 25 26 26 26 26 28 30 32 34 35 33 27 31 34
32 28 24 25 27 30 30 30 31 32 32 31 30 29 27 25 26 26 27 31 33 33 35 37 32 28 32

GFSFLT2_700_spd_072.txt.gz
Wind_Speed
33 28 27 31 30 29 25 24 21 19 17 17 17 15 13 13 12 12 13 13 13 14 15 17 21 24 26
32 31 28 28 28 26 22 23 20 18 17 16 14 14 13 14 14 14 14 14 14 14 14 16 19 21 26
30 30 29 27 25 23 24 20 18 17 16 15 15 15 14 15 15 16 16 16 17 16 16 18 20 22 25
29 28 28 25 23 23 20 17 15 15 15 14 15 15 15 16 16 16 17 17 17 17 18 19 19 20 21
27 27 24 21 19 17 15 15 14 14 14 15 15 16 16 16 17 17 17 18 18 18 17 19 19 19 20
23 21 20 17 15 14 14 14 14 15 15 16 16 16 16 16 16 16 16 16 17 17 18 18 18 19 19
18 17 17 15 16 15 15 15 14 15 15 15 16 16 16 16 16 16 15 16 17 16 16 17 17 18 19
16 16 16 15 15 15 14 14 14 15 15 15 16 15 16 16 16 15 16 16 16 16 16 16 17 19 19
15 13 14 14 13 13 13 13 15 14 14 14 14 14 15 16 16 16 16 17 17 17 18 18 18 19 20
13 12 13 14 12 11 12 13 12 12 12 12 14 15 16 16 16 17 18 18 18 19 19 19 20 21 21
11 12 12 13 12 10 10 9 9 11 14 15 15 15 16 17 18 19 20 20 20 21 21 21 21 22 22
11 13 13 12 12 11 12 14 20 15 16 15 15 16 17 19 20 22 22 23 22 22 22 22 22 23 23
15 14 14 15 16 16 24 30 16 17 17 16 16 17 18 20 21 23 25 25 24 23 23 23 24 24 25
16 19 19 19 21 28 29 18 19 18 18 18 19 19 20 21 21 24 27 28 27 26 24 25 26 27 27
20 23 24 22 24 31 29 23 22 21 20 21 21 21 22 23 23 26 29 29 32 30 27 26 28 29 30
20 21 24 30 33 30 27 26 24 23 24 25 25 25 25 26 26 26 29 31 33 33 32 29 26 30 32
27 30 30 26 22 21 21 23 26 28 28 29 28 27 27 25 28 30 31 35 37 36 35 34 28 27 30

GFSFLT2_700_spd_075.txt.gz
Wind_Speed
32 32 29 30 24 24 28 27 28 27 25 23 21 20 18 18 17 15 15 14 15 15 16 18 21 25 24
32 31 30 28 26 28 28 27 26 24 23 22 21 19 18 18 16 15 15 15 15 15 16 17 20 24 29
31 30 30 29 27 27 27 26 25 23 22 20 20 18 17 16 15 15 15 15 15 15 16 17 18 21 26
30 29 28 26 25 25 26 25 24 21 18 17 17 17 16 17 16 16 15 16 16 16 17 17 18 19 21
29 28 26 25 24 23 22 20 18 17 16 16 16 17 17 17 17 16 16 17 17 17 17 17 18 19 20
26 26 25 23 21 19 16 15 14 15 16 15 17 17 16 17 17 17 17 17 16 16 16 17 17 17 18
23 21 19 18 18 16 15 14 14 15 16 16 17 16 16 16 16 16 16 16 16 15 16 16 15 16 17
17 17 16 15 15 14 14 13 15 15 15 15 15 15 16 16 15 15 15 15 15 15 16 16 16 17 18
14 14 13 12 13 13 14 13 13 13 12 13 14 14 15 15 15 15 15 15 15 16 16 17 18 19 20
11 11 11 11 12 12 12 11 10 11 9 10 11 11 13 15 15 15 15 16 16 17 18 18 20 21 22
10 11 11 11 11 12 11 10 10 9 9 12 16 13 17 17 16 16 16 17 18 19 20 20 22 24 24
11 11 11 11 11 12 12 12 11 12 21 27 16 16 16 16 17 17 18 19 21 21 22 23 24 24 25
14 13 12 12 13 12 11 17 22 25 16 14 17 17 16 16 17 18 19 20 21 22 23 24 24 26 27
14 14 13 13 16 17 19 19 22 23 18 18 19 18 17 17 19 20 21 22 22 23 23 24 26 27 28
18 19 17 17 20 22 22 23 27 26 23 22 20 20 19 20 20 23 24 24 25 25 25 26 28 29 29
20 20 21 22 22 24 27 32 28 25 24 25 24 24 24 23 22 24 25 27 29 30 30 28 27 30 32
20 21 22 25 27 29 27 23 21 21 23 25 27 26 25 24 24 26 27 29 30 31 31 31 27 29 34

GFSFLT2_700_spd_078.txt.gz
Wind_Speed
34 33 33 32 29 28 29 25 26 28 28 30 27 24 22 22 21 19 21 19 19 19 18 20 21 22 23
34 34 34 32 29 27 27 25 31 33 29 26 25 22 21 22 19 17 19 18 18 18 17 20 22 23 25
33 33 33 32 30 28 30 30 29 26 26 24 23 23 20 19 18 17 18 19 18 19 19 19 21 24 29
35 34 33 31 29 28 28 27 27 26 24 23 21 20 19 17 16 17 17 18 18 19 19 19 20 23 27
35 33 31 29 27 26 26 25 24 23 22 19 17 18 16 17 17 18 18 18 20 21 20 20 22 23 24
32 29 27 25 24 24 23 22 21 18 16 15 16 16 16 17 18 19 18 19 20 20 21 20 21 22 22
26 24 23 22 21 20 19 18 16 15 15 14 15 16 16 17 17 18 18 18 19 19 19 19 19 20 21
20 19 18 17 16 15 15 14 14 14 15 14 14 15 15 16 15 16 17 18 18 17 17 18 19 19 19
16 15 14 13 12 12 12 13 13 13 13 13 13 13 13 14 15 16 17 17 17 17 18 18 18 19 20
13 13 12 12 12 12 13 12 12 13 12 11 11 12 10 12 15 15 16 16 17 18 18 19 20 21 21
11 11 12 13 14 15 15 14 14 15 14 11 11 12 17 23 24 19 17 19 20 20 20 20 22 22 23
13 14 14 14 14 15 14 14 14 14 12 13 17 23 28 24 18 20 20 20 20 20 20 22 23 24 25
16 16 15 15 15 15 15 16 16 16 17 19 21 20 18 17 18 21 20 20 21 21 22 23 24 26 27
18 18 18 17 16 15 14 17 20 22 19 19 20 21 19 19 20 20 21 21 21 21 22 23 25 26 27
20 20 19 19 20 20 20 22 23 24 23 24 25 23 22 22 22 22 22 22 22 23 24 25 26 27 28
23 21 21 21 23 23 24 25 26 26 29 31 28 26 26 26 27 26 25 25 25 26 26 26 26 28 29
26 24 22 22 23 25 25 25 30 31 28 24 22 23 25 27 28 28 28 28 28 28 27 28 28 30 32

GFSFLT2_700_spd_081.txt.gz
Wind_Speed
32 32 33 32 31 32 33 32 30 27 26 27 27 26 28 26 21 20 21 20 22 21 21 20 18 21 23
32 32 33 34 33 33 32 29 30 27 25 31 31 30 25 23 21 19 21 21 21 19 19 19 19 21 23
33 33 34 34 33 33 32 30 29 28 28 27 26 26 23 22 21 18 18 20 19 17 17 16 18 21 23
34 35 35 35 35 34 32 30 29 28 26 25 25 24 22 21 18 17 17 18 18 17 16 17 18 19 22
33 33 34 34 33 32 29 28 27 24 24 23 23 21 19 18 17 15 16 17 16 16 16 18 19 20 23
32 32 29 29 28 27 26 24 24 21 21 18 17 15 15 15 16 14 15 16 16 17 18 20 21 21 22
27 28 26 26 23 22 21 21 21 15 16 13 13 12 13 13 14 15 15 16 16 17 19 20 21 22 23
26 26 23 23 19 18 17 16 14 13 12 11 12 11 13 13 13 15 15 15 15 15 17 18 19 20 21
26 25 21 16 15 14 14 14 13 13 12 11 11 12 12 11 11 12 13 12 14 17 16 17 17 18 19
23 21 18 17 14 14 13 13 12 13 12 12 11 11 12 11 9 8 9 11 15 15 15 16 17 17 18
20 18 16 14 14 14 14 14 14 14 13 12 13 11 10 10 11 14 19 18 15 14 14 16 18 18 19
20 17 16 15 15 15 16 15 14 14 13 13 13 11 15 18 19 21 20 17 15 16 19 22 21 21 21
21 19 18 18 17 17 16 16 15 15 16 16 14 17 17 18 19 19 18 17 18 19 20 20 21 22 23
24 22 20 20 18 18 18 17 18 18 19 19 22 19 18 17 18 18 16 16 18 19 19 20 21 21 22
26 22 22 22 22 21 21 20 20 21 22 22 22 23 23 22 21 21 20 19 19 20 20 21 22 23 24
28 25 24 24 23 23 24 24 25 25 24 25 25 26 29 28 24 25 24 24 24 24 24 23 24 26 26
31 28 26 26 24 24 25 26 26 26 25 26 29 28 24 22 23 24 25 26 26 26 26 25 25 27 28

GFSFLT2_700_spd_084.txt.gz
Wind_Speed
28 28 29 28 28 28 29 29 30 30 30 30 27 27 28 24 21 22 20 20 19 18 20 22 21 21 26
29 28 29 28 29 30 30 29 30 30 30 29 27 27 26 23 23 21 19 19 21 18 22 20 20 21 22
29 28 29 30 32 32 31 32 32 32 30 29 26 24 22 22 21 20 19 19 18 17 18 19 19 20 21
28 29 31 31 32 32 33 34 33 31 28 26 25 23 22 22 21 19 19 18 17 12 15 16 17 16 18
28 29 30 31 31 32 32 32 29 27 27 23 22 22 20 20 19 17 17 16 17 18 18 16 16 15 17
29 29 29 30 29 30 28 26 24 24 23 21 20 18 16 15 14 12 13 14 15 15 15 16 17 17 18
28 28 27 28 26 26 25 23 21 19 18 16 16 12 12 11 10 10 11 12 13 14 15 15 17 18 18
28 28 25 26 24 24 23 19 16 15 15 14 12 11 11 10 10 10 11 12 11 12 14 13 15 17 19
27 25 24 23 21 21 18 17 13 14 13 12 12 11 11 11 12 10 12 11 9 10 11 13 15 17 17
26 23 23 21 20 18 16 14 13 12 11 13 12 11 12 12 11 10 9 8 9 12 17 16 15 15 17
23 22 22 20 17 15 16 15 12 13 13 13 13 12 11 9 8 8 10 11 11 13 17 17 16 14 15
23 22 21 19 17 16 17 14 15 15 13 14 13 11 11 9 10 14 16 16 16 17 21 19 16 15 16
24 23 21 21 20 18 17 18 17 15 15 16 15 14 12 12 14 14 15 16 16 16 16 14 16 18 20
27 24 23 22 22 22 21 20 19 18 18 19 18 16 16 16 15 15 14 14 16 17 16 17 17 18 19
28 25 25 25 25 24 23 21 20 20 20 21 20 19 19 18 19 20 17 17 17 16 16 16 17 19 20
31 27 28 27 27 26 26 24 24 23 23 23 23 22 22 22 23 25 23 20 21 20 19 19 20 21 22
34 29 30 30 28 26 27 26 25 25 25 26 26 26 25 26 24 20 20 21 23 24 24 23 23 24 24

GFSFLT2_700_spd_087.txt.gz
Wind_Speed
25 27 28 27 26 26 26 26 26 26 26 27 27 27 26 25 24 22 21 21 19 19 21 21 21 22 22
28 29 28 27 27 27 27 28 28 30 30 29 29 28 27 25 23 23 22 20 20 21 19 21 19 20 21
29 29 29 28 28 28 28 29 30 30 31 31 30 29 27 24 23 24 21 21 20 19 19 20 20 18 21
29 30 29 29 30 30 30 29 29 28 27 27 26 26 25 25 23 22 21 20 19 19 17 16 16 16 15
31 30 28 30 31 31 29 28 27 26 26 26 25 25 23 22 23 21 19 19 18 17 17 16 15 12 11
32 30 29 30 30 30 29 26 26 26 26 24 22 21 20 20 19 16 15 15 15 16 17 15 17 16 18
32 31 30 29 29 27 26 25 25 23 22 21 19 18 15 14 13 12 13 13 13 14 15 15 15 16 21
32 32 29 28 26 25 25 25 23 20 19 16 15 15 14 12 12 12 13 13 14 14 15 15 15 16 18
31 30 28 25 24 23 24 23 21 17 14 13 13 15 14 12 12 12 12 14 14 13 14 14 13 15 17
31 29 26 25 22 22 23 20 18 15 14 14 14 14 14 12 12 12 11 12 11 12 12 11 13 16 16
29 27 25 23 23 22 21 19 16 15 15 15 15 14 13 12 11 11 12 11 10 11 13 15 18 19 19
28 26 26 24 23 21 20 18 16 16 15 16 15 14 14 12 13 13 11 12 15 16 16 15 17 18 20
27 28 27 26 23 21 20 19 18 19 18 18 17 16 16 16 14 12 13 14 15 18 19 18 20 21 19
30 30 28 25 23 22 22 22 20 20 21 21 19 19 18 17 13 13 14 12 12 14 17 19 19 17 19
33 31 30 27 25 24 25 24 22 22 22 22 22 21 21 19 16 17 17 17 15 16 17 20 20 19 19
36 34 32 30 27 26 27 26 25 25 24 23 24 24 23 21 20 20 20 21 23 21 21 18 19 19 19
38 35 34 33 31 28 29 29 28 26 26 26 26 26 25 25 24 22 24 25 23 23 23 22 23 22 22

GFSFLT2_700_spd_090.txt.gz
Wind_Speed
28 26 24 25 26 28 27 26 26 26 26 27 27 27 26 26 26 25 23 22 22 23 22 22 23 24 24
28 27 25 26 27 27 28 27 27 28 29 29 28 29 29 29 29 29 26 24 22 22 22 22 24 23 22
27 27 26 27 28 27 27 28 28 28 28 28 28 28 28 29 29 27 24 24 22 20 21 21 22 21 20
28 27 28 29 29 28 28 28 28 27 28 28 27 28 29 28 26 24 21 21 20 19 19 20 21 21 16
30 29 29 30 30 30 30 28 27 27 27 26 28 29 27 24 22 20 20 19 18 19 20 19 18 16 12
32 32 31 32 31 29 29 29 28 27 27 27 26 24 22 20 18 18 18 18 18 19 19 18 15 14 9
34 32 34 34 33 30 29 28 28 28 27 26 23 20 20 17 15 15 15 14 16 17 16 16 17 18 17
38 35 34 35 33 30 29 29 28 28 26 24 20 19 17 14 13 13 13 13 14 15 14 16 17 20 23
37 37 35 34 33 30 29 28 27 26 24 22 19 16 14 13 13 14 13 14 15 15 16 17 17 18 20
41 36 36 33 31 29 30 27 26 26 23 21 19 15 14 14 14 15 14 14 14 16 17 16 17 18 18
39 38 34 31 30 30 29 27 25 25 22 20 19 16 16 16 15 15 14 15 15 16 15 15 15 16 16
40 36 32 31 30 29 27 26 24 24 22 20 19 16 17 17 17 17 17 16 16 13 13 15 17 18 19
37 34 32 35 34 29 26 25 24 24 23 22 21 20 19 18 18 19 18 18 16 16 17 20 20 20 21
38 39 38 35 32 29 26 25 25 25 24 24 23 22 21 21 21 21 19 14 14 16 16 19 22 23 23
39 39 38 35 33 30 28 27 26 26 25 26 26 25 24 24 24 23 20 17 16 16 17 16 18 21 22
42 42 40 38 36 36 34 30 27 29 28 27 27 28 27 27 26 24 21 18 18 18 19 19 19 21 24
36 39 42 43 43 41 38 35 31 31 30 30 29 29 29 30 28 25 22 21 20 22 24 24 24 22 21

GFSFLT2_700_spd_093.txt.gz
Wind_Speed
24 23 22 23 26 25 25 25 25 26 25 25 25 25 25 27 28 28 27 27 26 24 24 23 23 24 23
29 29 27 30 27 25 25 26 27 26 26 25 25 26 27 27 26 26 25 25 26 27 25 24 24 23 23
35 29 32 32 25 26 26 27 27 27 27 26 26 28 28 26 26 26 25 25 25 25 25 23 23 22 22
38 33 28 27 27 25 26 27 27 27 27 28 28 28 27 27 26 26 25 25 23 24 23 21 21 21 18
31 30 30 30 28 26 27 27 27 27 27 27 28 28 27 27 27 26 24 22 21 22 19 18 19 18 14
35 36 34 34 29 28 27 26 27 27 28 26 27 26 27 27 28 26 22 20 20 20 18 17 17 16 13
41 40 41 35 32 28 28 29 29 28 27 27 26 26 27 27 27 25 21 20 18 17 15 15 15 14 13
40 48 43 38 31 29 31 31 29 27 27 27 27 27 26 26 26 24 21 18 15 15 13 13 14 17 16
43 40 40 38 30 31 32 30 31 27 27 27 26 27 25 24 23 22 19 17 15 13 12 13 15 19 20
41 38 34 32 37 34 34 31 32 29 27 28 26 26 25 22 22 21 19 18 15 14 14 16 17 19 20
44 43 44 44 39 35 35 34 32 31 29 29 25 25 24 22 21 21 19 18 16 15 16 17 17 18 18
46 46 44 40 34 35 35 33 32 32 31 29 26 25 22 23 21 21 20 18 17 17 16 15 16 16 16
45 42 38 34 36 37 36 34 33 32 31 28 26 26 24 23 22 22 21 19 19 18 17 16 16 17 18
41 38 35 37 38 37 36 35 34 32 30 28 28 27 26 25 24 23 23 21 20 19 18 16 18 20 21
42 39 37 39 40 39 39 37 35 32 31 29 29 29 29 28 26 25 24 23 21 19 17 17 19 18 20
45 40 44 41 42 43 42 39 36 34 30 28 31 31 31 29 27 28 27 26 23 20 18 18 18 18 19
41 47 45 46 46 40 43 42 39 37 35 33 34 32 32 30 31 31 29 28 25 21 20 19 21 23 23

GFSFLT2_700_spd_099.txt.gz
Wind_Speed
35 32 33 37 34 28 31 41 39 35 35 32 29 24 21 25 24 24 24 23 23 23 23 24 23 23 22
31 35 35 29 21 20 24 32 30 34 33 22 19 20 23 24 25 25 25 24 23 23 23 23 22 22 22
31 29 33 30 29 28 28 30 32 24 25 21 20 23 22 24 25 25 25 24 24 23 22 22 22 21 21
34 38 36 31 32 32 32 31 33 36 29 23 23 23 24 25 25 26 26 24 23 23 21 22 21 20 20
42 36 38 38 39 35 39 37 37 34 33 30 25 25 26 27 27 26 25 24 23 23 22 21 20 20 19
42 42 38 38 37 36 28 37 37 38 35 29 28 27 28 28 27 26 25 24 23 23 22 21 20 20 18
46 45 44 41 38 37 45 44 45 33 32 35 32 28 30 29 28 27 26 24 23 22 20 21 21 19 17
45 46 44 38 39 47 37 34 37 37 42 40 33 31 32 29 28 28 26 25 24 21 20 20 20 18 16
41 45 40 35 42 44 47 42 47 44 46 42 41 34 31 30 29 28 26 25 23 21 22 21 19 17 16
53 36 47 40 51 46 47 48 44 40 43 44 41 33 31 30 30 29 26 24 21 20 21 20 20 17 18
44 41 49 42 40 47 51 48 50 42 31 30 35 31 30 31 31 28 25 22 21 21 21 21 19 19 19
41 48 39 50 40 40 35 33 34 35 33 34 34 33 34 33 30 26 24 23 22 23 23 22 21 20 20
40 39 52 35 41 40 49 40 36 38 34 32 34 35 35 33 28 26 26 24 23 24 24 22 23 21 23
37 36 43 41 47 38 39 35 37 42 32 36 38 38 36 31 28 28 26 25 24 25 24 24 23 24 24
33 36 38 45 42 47 38 36 46 36 30 35 35 33 33 31 29 27 25 25 26 26 25 24 24 24 24
31 33 37 42 41 35 41 40 30 34 37 32 33 33 32 31 29 28 27 27 28 26 26 27 27 26 26
26 36 35 37 38 41 39 38 39 37 36 36 35 34 34 31 29 27 28 29 28 28 27 27 28 27 25

GFSFLT2_700_spd_105.txt.gz
Wind_Speed
39 44 44 43 49 43 46 42 39 44 47 50 49 45 42 43 46 50 44 39 36 36 33 29 28 26 26
39 36 33 32 32 36 31 37 39 36 32 38 38 39 39 45 45 43 38 37 37 37 33 31 29 28 26
36 31 32 31 31 33 29 32 38 34 35 39 39 34 37 50 40 35 37 36 36 37 35 33 30 29 27
37 38 39 37 39 36 34 33 31 28 29 26 31 33 46 46 33 32 37 39 36 35 35 32 31 30 28
45 46 46 43 42 39 40 34 34 32 27 28 28 34 41 37 33 39 39 34 34 35 34 32 32 31 28
48 49 49 47 45 44 42 39 38 37 34 38 35 34 42 42 37 33 35 35 37 38 35 34 32 30 28
50 49 49 48 49 49 47 45 46 40 36 41 43 41 37 38 40 44 41 41 39 37 36 35 32 31 28
52 55 54 51 49 49 49 50 51 48 41 44 42 48 45 44 42 47 45 44 40 37 35 36 34 31 27
42 46 48 50 50 48 49 49 52 50 48 53 47 49 49 39 52 46 49 47 47 41 37 36 35 31 28
38 38 40 45 47 48 47 49 49 54 52 48 52 53 48 45 56 49 48 54 50 42 40 38 34 32 29
47 43 39 39 43 47 50 49 51 55 52 56 50 55 54 53 55 54 52 51 50 43 41 37 34 31 30
45 44 44 41 40 44 50 51 49 53 51 53 57 57 55 58 59 63 63 55 51 47 42 36 35 31 29
39 39 40 41 41 41 43 49 52 50 52 56 50 51 63 58 57 58 66 64 55 49 46 37 34 32 31
36 37 38 39 40 39 39 42 48 49 49 47 53 46 51 61 60 65 65 47 51 46 50 39 38 35 34
35 36 36 35 36 34 35 37 40 43 45 39 43 49 41 46 51 52 50 43 41 44 48 39 38 36 34
33 33 32 30 29 27 29 32 35 41 34 42 30 35 41 39 44 40 42 41 47 47 42 38 35 35 34
29 29 28 26 24 24 26 29 30 40 42 29 29 32 35 39 37 37 39 41 44 43 41 36 34 35 35

GFSFLT2_700_spd_111.txt.gz
Wind_Speed
33 32 33 35 36 43 50 50 44 50 48 46 45 47 49 51 51 54 54 57 49 44 43 39 37 32 30
23 21 19 27 35 37 34 31 38 44 40 43 44 43 46 54 58 57 49 44 45 46 41 39 36 34 33
28 28 26 26 29 29 30 38 37 38 37 40 39 38 45 43 45 44 42 43 47 45 45 41 44 30 36
37 36 36 35 38 32 32 35 28 37 39 32 33 36 41 40 41 39 36 34 41 44 42 38 37 40 40
41 39 38 38 39 42 36 36 38 36 35 33 34 32 31 36 39 36 37 40 39 35 35 38 41 37 35
37 39 40 43 42 42 42 43 47 41 40 37 37 37 35 31 30 31 30 24 30 33 39 38 38 40 37
37 37 37 39 41 43 45 47 46 45 44 44 42 42 41 37 35 32 27 25 26 32 36 41 37 30 33
38 37 38 36 39 42 44 46 49 48 47 50 45 43 41 40 40 33 31 33 38 33 31 32 30 31 34
38 38 36 37 37 40 40 45 46 44 44 51 48 48 45 44 43 44 40 38 39 31 32 34 32 29 32
37 37 36 37 37 39 39 41 43 45 41 46 47 49 50 47 46 47 46 45 43 42 41 39 37 31 34
37 36 35 35 36 37 38 40 42 45 40 42 45 45 49 51 49 50 53 52 46 42 48 46 43 40 39
40 37 34 35 35 36 37 38 40 42 39 39 44 43 46 49 50 52 53 56 56 50 41 45 47 46 43
37 37 36 35 35 35 35 36 38 39 40 39 41 41 44 47 49 49 53 55 55 56 55 47 42 44 44
27 30 33 33 34 34 34 34 36 35 36 36 39 41 42 45 48 49 48 54 55 55 50 52 49 43 44
28 23 31 31 31 31 32 31 33 33 33 32 34 37 40 41 45 47 44 46 52 52 51 49 51 46 44
26 26 28 28 27 25 26 27 28 28 27 27 29 33 36 40 42 43 44 42 38 48 43 44 47 46 43
22 21 22 21 21 21 21 22 22 23 24 23 25 28 33 37 37 39 40 43 33 34 44 43 40 46 43

GFSFLT2_700_spd_114.txt.gz
Wind_Speed
29 28 32 40 36 41 40 37 35 36 45 48 41 37 45 42 48 51 45 51 46 47 52 43 40 38 39
34 32 36 40 42 46 39 41 46 47 46 42 47 43 45 45 50 51 49 49 46 51 53 50 44 45 41
34 34 34 30 26 23 28 35 40 40 40 37 40 46 51 50 46 46 51 48 50 54 52 55 48 43 43
38 37 34 35 38 35 30 29 32 42 46 44 42 42 42 46 43 46 46 48 43 42 45 46 45 43 44
38 37 37 36 41 40 38 40 39 36 34 37 43 35 37 41 41 41 40 39 41 42 39 36 44 42 42
38 40 37 39 39 40 42 42 41 46 43 41 38 38 41 36 36 33 32 35 40 36 39 37 36 41 41
41 40 39 39 41 40 41 43 45 43 45 47 46 45 41 39 37 34 33 29 25 27 33 37 37 33 37
40 41 43 40 42 42 41 43 44 41 45 50 44 45 48 43 35 35 35 32 28 25 30 31 32 33 38
41 42 40 41 41 44 41 44 45 42 38 50 43 48 47 43 39 39 37 35 32 29 30 23 25 30 32
39 40 42 41 39 41 43 44 45 43 41 44 41 45 47 46 44 44 44 40 40 37 40 35 34 32 34
37 36 36 38 38 39 42 43 43 45 38 43 43 37 43 45 42 46 47 45 45 47 44 44 39 39 35
36 36 35 34 36 37 38 41 43 43 37 39 44 41 42 44 44 42 46 48 48 47 48 48 47 45 42
35 34 33 34 34 35 36 38 41 40 37 36 40 39 41 43 44 43 43 48 51 54 55 51 49 47 48
35 33 32 32 33 33 32 34 38 37 37 36 36 37 39 41 43 43 44 47 51 54 56 55 54 51 44
32 31 29 29 30 32 34 31 33 34 34 33 34 36 37 38 42 43 43 45 46 49 54 54 55 55 55
27 27 26 25 26 27 28 28 27 27 29 29 30 32 35 36 38 41 42 43 44 45 47 52 56 52 51
25 23 22 23 23 22 21 23 23 23 23 25 26 28 31 34 33 37 40 41 41 41 44 48 53 54 51

GFSFLT2_700_spd_117.txt.gz
Wind_Speed
37 36 47 38 28 35 39 39 43 45 55 56 56 52 47 47 52 50 48 52 47 46 52 48 39 36 41
35 37 38 40 40 39 42 43 44 39 51 35 45 44 43 50 45 45 45 42 46 48 49 42 40 43 36
38 37 36 38 39 39 42 42 48 46 41 42 44 39 34 49 49 50 40 41 47 48 45 44 46 45 42
40 39 39 37 38 37 35 44 38 36 36 33 36 38 38 44 49 45 45 47 48 50 50 53 50 45 48
40 39 39 39 40 38 37 37 40 45 34 31 32 36 40 38 37 40 44 51 50 48 44 49 47 45 44
36 38 38 40 42 41 41 39 40 37 46 40 40 37 39 46 47 46 47 45 48 45 42 44 43 41 38
41 41 41 42 44 44 42 44 43 37 43 46 42 45 44 41 42 41 41 41 39 43 43 43 40 43 42
40 41 42 42 45 47 47 46 44 40 42 47 39 44 45 50 48 42 42 43 41 37 33 38 44 42 40
38 38 39 40 41 45 45 47 49 43 40 48 43 44 42 42 45 51 46 44 42 37 30 29 30 32 36
34 35 36 39 40 40 43 45 46 48 40 44 44 44 43 40 41 43 43 48 40 41 27 31 29 33 36
37 36 36 38 37 38 38 41 43 44 40 45 44 38 44 43 38 37 38 39 43 37 32 34 32 24 28
38 37 37 36 36 34 34 35 38 41 39 40 45 40 42 43 41 35 36 37 40 38 38 39 36 35 31
37 37 37 36 34 33 32 32 35 35 36 36 41 40 41 43 41 39 38 37 40 43 45 47 46 44 46
36 36 37 35 31 30 32 32 33 31 30 31 36 40 40 40 40 37 41 41 40 43 47 50 53 52 43
34 35 33 31 28 27 29 31 32 31 28 27 31 37 37 37 38 34 37 41 42 42 47 50 52 52 51
32 33 31 28 27 25 25 28 29 28 26 25 26 31 34 34 34 33 33 38 39 41 46 50 55 55 49
31 30 29 27 25 24 23 24 25 24 23 24 23 24 29 32 31 33 32 34 38 40 43 48 51 55 60

GFSFLT2_700_spd_123.txt.gz
Wind_Speed
29 30 31 33 34 36 39 39 39 40 39 42 44 48 45 57 62 57 65 67 64 62 57 56 55 62 56
30 28 27 31 32 33 35 37 38 40 41 39 39 39 47 47 52 54 57 68 65 65 63 62 55 60 56
31 30 29 31 32 32 33 33 34 37 39 41 40 38 35 39 39 45 53 48 68 62 60 57 58 56 53
33 34 32 32 35 37 36 38 37 37 38 38 39 39 38 34 43 37 46 42 33 55 62 61 56 55 57
32 34 36 36 37 39 42 41 40 39 39 37 36 37 37 38 35 46 41 38 43 35 49 53 55 51 56
34 34 35 36 37 39 41 44 45 42 45 39 40 36 35 36 38 37 45 40 46 46 34 44 59 49 46
36 35 36 38 41 43 45 46 46 42 45 47 41 39 35 33 36 39 37 50 37 46 50 37 41 43 47
35 36 37 39 41 44 46 47 45 43 43 47 42 43 37 34 34 38 40 38 50 38 43 49 46 47 44
33 35 36 37 40 43 43 45 46 44 41 47 44 46 42 35 34 35 38 39 39 46 38 38 44 52 48
33 33 33 33 35 38 40 41 44 47 40 46 45 44 47 37 32 31 36 39 37 38 40 40 39 41 46
36 35 34 34 33 33 35 37 38 41 39 42 43 40 43 44 35 29 32 36 37 37 39 42 41 41 43
37 36 36 35 34 32 33 35 36 38 37 38 40 39 40 40 37 29 28 32 36 37 38 39 41 43 37
36 36 37 36 36 35 34 34 35 35 35 34 34 34 36 37 36 28 28 27 33 35 36 37 38 38 45
35 36 36 37 36 35 35 34 35 32 29 28 29 32 32 32 33 27 26 27 27 32 37 37 36 38 38
35 36 34 34 33 32 32 32 31 30 28 21 23 27 28 30 31 27 28 24 26 30 35 37 36 36 38
35 34 33 32 31 30 28 28 28 27 24 21 22 23 24 23 27 26 26 24 25 29 32 36 36 37 38
34 33 31 30 30 28 26 26 25 24 21 20 21 22 24 23 20 21 25 23 24 27 29 33 36 37 39

GFSFLT2_700_spd_129.txt.gz
Wind_Speed
25 24 25 26 27 27 27 27 27 27 28 29 29 30 31 33 35 37 39 41 43 44 45 44 50 55 59
24 24 25 26 26 26 26 26 27 28 30 31 33 34 35 35 36 36 37 38 39 40 43 45 45 50 55
24 26 27 28 27 28 30 32 33 32 32 31 30 32 33 34 35 37 40 41 39 39 40 43 47 46 51
31 30 29 30 33 35 35 35 34 31 33 34 33 32 34 37 39 39 39 41 42 42 40 41 44 46 47
31 32 32 33 35 36 39 38 36 36 36 36 36 37 37 37 39 41 42 42 44 45 45 44 44 45 44
32 34 35 36 39 40 41 42 42 39 42 42 40 41 42 42 41 42 45 46 46 45 48 49 48 47 47
33 34 37 38 41 43 44 45 45 44 46 47 43 45 45 44 44 44 43 44 47 48 48 51 50 49 46
35 36 38 39 42 44 46 46 47 46 46 50 47 47 47 46 44 44 43 42 45 48 49 50 52 51 49
34 36 37 38 40 43 44 46 48 48 47 49 49 50 49 47 43 42 41 40 41 45 48 49 52 52 51
33 34 35 36 37 38 40 43 46 48 46 49 52 49 53 48 44 41 40 40 41 43 44 47 49 52 51
35 35 35 35 36 36 38 41 44 46 42 45 47 45 46 50 45 42 42 42 41 41 42 43 45 49 49
34 34 35 34 34 36 39 41 41 43 41 41 44 43 45 45 44 39 39 39 40 41 41 40 41 44 44
33 32 31 31 34 35 38 39 40 38 37 37 38 38 40 41 40 37 36 34 35 36 35 36 37 38 39
32 29 30 32 33 35 36 37 38 35 33 32 34 36 37 38 37 36 33 33 31 31 32 30 31 32 33
28 28 30 32 34 35 35 33 34 33 32 30 31 33 36 36 35 32 31 31 30 30 31 29 26 27 30
27 28 30 31 32 31 33 33 33 32 33 32 33 33 32 31 30 31 32 30 28 29 31 31 27 23 27
27 28 29 30 31 30 31 33 32 32 30 30 30 31 32 30 23 24 28 26 28 29 29 29 30 23 25

GFSFLT2_700_spd_132.txt.gz
Wind_Speed
29 30 29 27 27 27 26 26 26 26 26 28 27 27 28 29 30 31 32 32 32 32 34 36 39 43 45
28 27 27 27 27 27 26 25 25 26 28 31 32 33 33 33 32 31 30 29 29 30 33 34 34 37 42
28 27 26 28 29 29 27 28 29 30 33 34 35 34 34 34 35 35 34 34 34 34 34 33 32 35 37
32 27 28 29 30 30 28 29 30 31 33 35 35 36 38 39 39 39 40 41 41 39 39 38 36 35 35
32 30 27 29 31 31 30 31 31 33 34 36 37 37 38 40 42 43 44 44 45 45 45 43 43 41 39
32 31 30 31 32 33 34 35 36 34 37 37 38 40 41 42 43 44 45 46 47 48 48 49 48 46 44
32 30 30 32 35 35 35 36 37 37 40 41 39 42 42 44 44 44 45 46 47 48 49 50 52 51 49
32 30 31 33 34 36 36 38 38 38 41 46 43 45 45 44 44 44 45 45 45 46 48 50 52 53 52
29 29 30 31 33 35 35 39 39 37 37 43 45 49 50 50 47 43 42 43 44 45 46 48 50 53 53
28 29 30 30 30 32 34 34 34 37 38 42 46 50 54 52 49 44 41 40 41 43 44 45 48 51 53
28 28 28 29 29 29 29 32 35 38 38 43 45 45 48 51 46 43 41 38 37 38 41 42 44 46 50
29 28 29 28 27 26 29 32 35 36 36 39 42 41 43 45 44 39 38 36 34 34 36 37 39 42 44
29 28 29 28 25 27 30 32 35 33 32 33 36 38 40 43 43 42 39 35 34 34 34 35 37 38 40
29 28 28 27 26 28 30 32 34 31 30 31 34 37 40 41 42 41 37 36 33 30 31 32 32 32 35
29 28 27 26 26 28 30 33 34 34 33 32 33 35 37 39 40 37 36 34 30 28 29 30 28 28 29
28 27 27 26 28 29 32 33 34 34 35 35 36 36 35 33 31 31 29 28 27 27 29 32 30 28 26
28 27 27 27 30 30 33 35 35 34 33 33 34 34 38 36 28 28 26 24 27 29 30 31 32 29 27

GFSFLT2_700_spd_135.txt.gz
Wind_Speed
31 32 32 32 31 30 28 26 26 27 27 27 26 26 26 28 30 31 31 31 31 30 30 29 30 30 32
30 31 33 34 31 29 28 28 28 27 28 28 28 29 31 32 33 35 36 35 32 30 28 28 27 26 29
32 32 32 34 31 30 28 27 27 27 29 30 31 31 32 33 34 34 35 35 35 35 35 35 34 33 32
35 33 32 31 31 31 28 27 26 27 29 30 31 31 33 35 36 38 39 41 43 43 43 42 41 40 40
35 34 31 30 30 30 29 28 27 28 29 29 31 30 31 33 35 38 41 44 47 48 49 50 49 48 46
35 34 30 30 30 30 29 29 27 28 31 26 30 30 31 32 34 35 38 42 45 48 50 52 54 54 53
37 34 32 29 29 28 28 29 28 26 32 29 31 31 31 31 33 36 39 42 44 47 49 51 53 55 57
37 33 32 29 31 30 28 29 27 26 30 29 27 29 30 31 33 36 39 43 46 50 52 53 53 54 57
35 32 29 29 29 31 29 30 28 27 24 31 32 32 32 33 34 34 35 38 41 45 48 51 53 54 56
32 30 29 28 28 30 30 30 31 28 25 32 34 37 38 36 36 35 36 37 39 40 42 45 48 52 54
29 28 27 27 27 28 29 30 29 28 29 36 38 37 40 42 38 37 38 38 39 39 38 41 43 44 48
30 26 26 26 27 28 29 28 28 29 29 33 37 37 40 42 41 40 39 38 39 38 39 40 40 41 43
29 27 27 26 27 27 27 27 28 27 29 32 36 38 40 41 43 41 40 36 35 36 36 36 37 37 40
29 27 26 27 28 28 27 27 28 26 27 30 34 38 40 40 42 41 36 38 33 33 35 34 33 33 35
29 28 27 28 27 27 28 28 29 29 28 29 32 37 39 39 41 40 37 36 31 32 33 32 30 31 32
29 28 28 27 27 27 27 28 30 30 31 32 35 38 40 39 37 40 37 35 33 34 34 36 34 34 33
27 26 27 27 27 27 26 28 30 32 30 32 35 37 43 46 41 39 39 34 36 36 36 37 39 33 35

GFSFLT2_700_spd_141.txt.gz
Wind_Speed
33 34 35 36 36 36 36 36 36 35 35 35 33 32 30 29 28 27 26 28 27 26 26 26 28 29 30
33 33 35 36 37 36 36 37 37 36 35 34 35 33 31 30 28 27 27 27 28 28 29 29 30 31 32
34 34 35 35 37 37 38 39 38 36 35 33 32 33 33 30 29 28 28 27 28 29 29 30 30 30 31
37 35 36 36 37 38 38 38 36 36 35 33 32 32 32 31 29 28 29 29 29 28 28 28 29 30 31
38 38 36 37 39 39 40 37 35 34 34 34 32 31 32 31 29 29 28 28 27 27 27 27 28 30 31
39 40 37 38 39 40 40 39 35 32 33 32 33 31 31 30 29 28 28 28 27 27 28 28 28 29 31
40 38 39 38 41 41 41 40 35 31 33 30 30 29 30 28 29 29 28 27 28 29 29 29 31 33 33
43 39 39 39 41 44 41 38 35 31 32 32 29 28 27 26 28 26 26 27 29 30 31 33 34 35 36
42 40 39 41 43 44 41 38 34 29 30 33 28 29 27 24 25 25 26 28 30 31 32 33 36 38 40
41 40 39 41 42 43 41 39 35 28 29 32 28 30 29 24 24 23 23 26 27 28 31 34 37 41 43
41 40 38 40 39 41 39 37 32 30 30 33 28 29 31 30 23 23 23 25 27 29 32 35 39 42 45
41 39 37 35 36 38 37 31 32 30 30 32 32 31 32 31 29 25 25 27 29 29 32 35 39 41 45
38 36 34 33 35 35 32 31 31 30 31 31 32 33 35 34 33 29 29 29 28 31 34 38 40 42 44
37 35 32 33 33 34 29 32 30 29 29 31 33 35 35 35 38 35 31 35 31 33 38 42 44 45 46
36 32 31 31 32 30 30 31 31 29 28 30 34 37 38 37 38 36 35 35 34 37 42 46 47 46 46
33 31 30 30 31 28 29 30 31 30 29 29 32 37 39 39 38 39 37 37 37 41 45 48 49 47 46
31 31 29 30 28 28 28 28 29 30 29 29 31 34 38 41 36 35 40 39 42 46 45 46 48 46 46

GFSFLT2_700_spd_144.txt.gz
Wind_Speed
34 34 34 36 36 37 37 38 37 37 36 34 34 34 32 31 30 28 28 28 29 28 28 28 29 29 30
34 33 34 35 36 36 37 37 37 37 37 37 36 33 32 31 30 27 28 28 28 29 29 27 27 28 27
39 35 35 35 36 37 37 37 38 38 38 37 35 34 32 31 30 27 27 28 28 29 29 28 29 28 27
42 39 37 37 39 39 38 39 38 38 38 38 36 35 33 32 29 28 27 27 28 28 28 29 29 27 28
43 42 40 39 40 41 42 40 38 38 37 39 37 36 34 33 29 28 28 27 27 27 28 28 28 27 27
45 43 42 40 42 43 44 42 41 38 40 36 37 35 34 34 30 28 28 27 26 27 27 27 27 27 27
43 41 43 42 45 44 42 43 42 40 41 36 33 32 33 33 31 30 28 27 26 26 26 26 26 26 26
47 42 43 42 44 43 42 43 42 39 38 39 32 30 32 30 30 30 28 27 27 26 26 25 26 27 28
45 43 42 39 43 44 43 44 43 39 36 37 30 32 30 27 29 28 28 27 26 26 26 27 28 29 29
41 42 42 42 44 45 43 43 41 39 34 37 30 32 31 26 27 27 28 27 27 26 26 26 27 28 28
41 42 43 44 44 42 40 41 39 37 35 36 31 31 29 29 25 25 28 28 28 27 27 29 31 32 33
40 40 40 40 40 38 37 40 36 35 34 35 30 32 31 28 29 26 26 30 30 30 32 34 34 35 36
38 39 37 37 38 37 36 36 35 32 32 32 31 32 32 30 30 28 27 29 29 30 32 34 35 36 36
39 38 37 37 36 35 33 34 35 30 30 30 31 32 33 33 33 29 28 31 30 31 34 35 35 36 37
38 36 35 35 33 31 32 34 31 29 27 28 30 32 33 33 33 32 31 31 31 32 35 36 37 38 38
36 34 33 32 30 30 32 31 29 27 25 26 28 31 33 32 34 34 34 34 33 35 37 41 42 42 42
34 32 31 29 29 30 29 29 27 26 25 26 27 30 32 33 30 32 34 32 36 39 41 43 47 46 45